EW1104 Weather Reports


time (UTC)temp
C
wind
direction
speed
KPH
gust
KPH
rain 1hr
cm
rain 24hr
cm
rain mn
cm
humidity
%
barometer
mb
20260506191510 16 151 0.0 1.6 0.00 0.05 0.05 92 1007.2
20260506190007 16 109 0.0 9.7 0.00 0.05 0.05 92 1007.2
20260506184505 16 168 0.0 4.8 0.00 0.05 0.05 92 1007.3
20260506183004 16 229 0.0 1.6 0.00 0.05 0.05 92 1007.3
20260506181503 16 268 0.0 0.0 0.00 0.05 0.05 91 1007.2
20260506180002 16 269 0.0 3.2 0.00 0.05 0.05 91 1007.5
20260506174500 16 156 0.0 1.6 0.00 0.05 0.05 91 1007.8
20260506173130 17 166 0.0 3.2 0.00 0.05 0.05 92 1007.7
20260506171600 16 242 0.0 3.2 0.03 0.05 0.05 91 1007.5
20260506170057 16 41 0.0 1.6 0.05 0.05 0.05 91 1007.6
20260506164554 16 236 0.0 1.6 0.05 0.05 0.05 90 1008.2
20260506163102 16 175 0.0 1.6 0.05 0.05 0.05 89 1008.8
20260506161550 17 172 0.0 1.6 0.03 0.03 0.03 87 1008.9
20260506160049 17 241 0.0 4.8 0.00 0.00 0.00 83 1009.1
20260506154552 18 246 0.0 8.0 0.00 0.00 0.00 79 1009.1
20260506153048 18 158 0.0 8.0 0.00 0.00 0.00 75 1009.1
20260506151546 19 152 0.0 6.4 0.00 0.00 0.00 73 1009.0
20260506150042 20 165 0.0 1.6 0.00 0.00 0.00 72 1009.2
20260506144543 20 163 0.0 3.2 0.00 0.00 0.00 70 1009.2
20260506143039 20 154 0.0 9.7 0.00 0.00 0.00 71 1009.2
20260506141536 19 122 0.0 3.2 0.00 0.00 0.00 75 1009.0
20260506140042 18 191 0.0 9.7 0.00 0.00 0.00 73 1009.1
20260506134534 19 124 0.0 4.8 0.00 0.00 0.00 73 1009.2
20260506133034 18 253 0.0 4.8 0.00 0.00 0.00 73 1009.3
20260506131533 18 222 0.0 6.4 0.00 0.00 0.00 74 1009.2
20260506130032 18 297 0.0 4.8 0.00 0.00 0.00 74 1009.3
20260506124528 18 162 0.0 6.4 0.00 0.00 0.00 76 1009.1
20260506123026 17 264 1.6 6.4 0.00 0.00 0.00 78 1009.0
20260506121526 17 215 0.0 4.8 0.00 0.00 0.00 79 1009.2
20260506120031 17 263 0.0 6.4 0.00 0.00 0.00 79 1009.4
20260506114524 17 231 1.6 6.4 0.00 0.00 0.00 79 1009.6
20260506113020 17 182 0.0 4.8 0.00 0.00 0.00 82 1009.3
20260506111523 16 134 0.0 6.4 0.00 0.00 0.00 83 1009.5
20260506110018 16 217 0.0 4.8 0.00 0.00 0.00 84 1009.3
20260506104517 16 169 0.0 9.7 0.00 0.00 0.00 84 1009.2
20260506103021 16 214 0.0 4.8 0.00 0.00 0.00 84 1009.3
20260506101517 16 194 0.0 11.3 0.00 0.00 0.00 84 1009.3
20260506100016 16 270 0.0 6.4 0.00 0.00 0.00 84 1009.0
20260506094515 16 236 0.0 6.4 0.00 0.00 0.00 85 1009.0
20260506093023 16 256 0.0 1.6 0.00 0.00 0.00 85 1009.0
20260506091516 16 222 0.0 4.8 0.00 0.00 0.00 85 1009.2
20260506090012 16 143 0.0 1.6 0.00 0.00 0.00 84 1009.2
20260506084512 16 232 0.0 4.8 0.00 0.00 0.00 85 1009.3
20260506083008 16 169 0.0 3.2 0.00 0.00 0.00 84 1009.3
20260506081508 16 345 0.0 1.6 0.00 0.00 0.00 84 1009.5
20260506073007 16 210 0.0 3.2 0.00 0.00 0.00 82 1009.6
20260506071500 16 309 0.0 1.6 0.00 0.00 0.00 81 1009.6
20260506061603 17 172 0.0 3.2 0.00 0.00 0.00 78 1010.0
20260506044545 17 172 0.0 1.6 0.00 0.00 0.00 72 1010.3
20260506043050 17 165 0.0 1.6 0.00 0.00 0.00 71 1010.4
20260506041554 17 163 0.0 3.2 0.00 0.00 0.00 70 1010.4
20260506040040 18 172 0.0 6.4 0.00 0.00 0.00 69 1010.4
20260506034540 18 225 0.0 1.6 0.00 0.00 0.00 68 1010.3
20260506033042 18 149 0.0 1.6 0.00 0.00 0.00 67 1010.4
20260506031542 18 179 0.0 3.2 0.00 0.00 0.00 66 1010.3
20260506030038 18 215 0.0 9.7 0.00 0.00 0.00 65 1010.3
20260506024537 19 132 0.0 3.2 0.00 0.00 0.00 64 1010.2
20260506023049 19 280 0.0 4.8 0.00 0.00 0.00 63 1010.3
20260506021536 20 172 0.0 1.6 0.00 0.00 0.00 61 1010.2
20260506020106 20 194 0.0 4.8 0.00 0.00 0.00 58 1010.2
20260506014536 21 253 0.0 4.8 0.00 0.00 0.00 56 1010.0
20260506013035 21 235 0.0 4.8 0.00 0.00 0.00 53 1010.0
20260506011539 21 333 0.0 6.4 0.00 0.00 0.00 51 1009.8
20260506010035 22 248 0.0 4.8 0.00 0.00 0.00 48 1009.5
20260506004541 22 229 0.0 1.6 0.00 0.00 0.00 47 1009.3
20260506003034 22 287 0.0 6.4 0.00 0.00 0.00 45 1009.2
20260506001538 23 298 0.0 8.0 0.00 0.00 0.00 44 1009.1
20260506000051 23 229 0.0 3.2 0.00 0.00 0.00 43 1009.0
20260505234539 23 240 0.0 4.8 0.00 0.00 0.00 40 1008.9
20260505233032 24 91 1.6 8.0 0.00 0.00 0.00 38 1008.7
20260505231532 24 231 0.0 11.3 0.00 0.00 0.00 36 1008.5
20260505230041 25 209 0.0 4.8 0.00 0.00 0.00 36 1008.4
20260505224536 25 215 0.0 6.4 0.00 0.00 0.00 35 1008.2
20260505223034 25 263 0.0 14.5 0.00 0.00 0.00 34 1008.2
20260505221527 25 246 0.0 11.3 0.00 0.00 0.00 32 1008.3
20260505220024 26 250 1.6 12.9 0.00 0.00 0.00 31 1008.2
20260505214524 26 208 1.6 9.7 0.00 0.00 0.00 30 1007.8
20260505213026 27 141 1.6 14.5 0.00 0.00 0.00 30 1007.7
20260505211527 28 245 3.2 12.9 0.00 0.00 0.00 29 1007.6
20260505210013 28 223 0.0 8.0 0.00 0.00 0.00 29 1007.6
20260505204510 28 216 1.6 9.7 0.00 0.00 0.00 29 1007.6
20260505203014 28 212 1.6 11.3 0.00 0.00 0.00 30 1007.7
20260505201508 28 267 0.0 8.0 0.00 0.00 0.00 33 1007.8
20260505200008 28 43 0.0 11.3 0.00 0.00 0.00 33 1007.9
20260505194507 28 281 1.6 19.3 0.00 0.00 0.00 31 1007.9
20260505193005 29 233 0.0 4.8 0.00 0.00 0.00 35 1008.0